THORAD AGENA D DEB, 4980

Orbit data source: Space-Track

THORAD AGENA D DEB, 4980 is space debris in SSO originally from a launch on Wed, 08 Apr 1970 UTC launched from the Air Force Western Test Range (AFWTR). Debris objects in space refer to the collection of defunct objects orbiting the Earth. Examples of debris include non-operational satellites, rocket bodies, and fragments generated from explosions, collisions, or faulty payload assembly.

Loading next visibility...
Identifier
4980, 1970-025HA
Orbit
SSO
Country
Flag of USUS
Related business
Manufacturer
Unknown
Mission
Spacecraft
Bus & Motor
Unknown
Mass
Unknown
Launch date (UTC)
1970-04-08 (56 years ago)
Launch vehicle
Unknown
Launch site
Air Force Western Test Range (AFWTR)
Object type
Payload
Rocket body
Debris
Shape & HBR
Unknown shape, 0.1 m
Radar Cross Section
Small (<0.1 m²)

Expand to show TLE details & history
Last TLE update: 1 day ago

TLE from 1 day ago
0 THORAD AGENA D DEB
1 04980U 70025HA  25300.53639447  .00000428  00000-0  61010-3 0  9991
2 04980  99.2905 138.2723 0009212  23.9644   5.6055 13.61955860748559
Epoch: 2025-10-27T12:52Z
TLE epoch observation values (Epoch: 2025-10-27T12:52:24.482Z)
Latitude
29.20191°
Longitude
-96.18535°
Altitude
1,025.344 km
Speed
7.345 km/s
True Right ascension
08h 52m 12s
True Declination
29° 03' 39"
Sunlit
Object was in daylight at epoch
Visualization orbit readout
Latitude
Unknown
Longitude
Unknown
Altitude
Unknown
Speed
Unknown
Apparent Right ascension
Unknown
Apparent Declination
Unknown
Sunlit
N/A
Visualization observer readout
Local Sidereal Time
12:38:08
Azimuth
Unknown
Elevation
Unknown
Doppler factor
Unknown
Orbital elements
Apogee altitude
1,032.678 km
Perigee altitude
1,019.037 km
Semi-major axis
7,403.994 km
Eccentricity
0.00092
Inclination
99.2905°
RAAN
138.2723°
Arg. of periapsis
23.9644°
True anomaly
5.61582°
Mean anomaly
5.6055°
Eccentric anomaly
5.61066°
Mean motion
3.40678 °/min
Orbital period
105.67 mins
BSTAR
0.0006101
Loading maneuver chart data...
Computing Atmospheric mass density...

Documentation

Showing up to 5 results
|